owner,sensor,date,latitude,longitude,relative_humidity,qcFlag 
DISL,ioos:station:DISL:CATA:1,2018-05-01T00:47:00Z,30.3085,-88.1395,80.3,1111122 
DISL,ioos:station:DISL:CATA:1,2018-05-01T01:47:00Z,30.3085,-88.1395,81.3,1111122 
DISL,ioos:station:DISL:CATA:1,2018-05-01T02:47:00Z,30.3085,-88.1395,82.4,1111122 
DISL,ioos:station:DISL:CATA:1,2018-05-01T03:47:00Z,30.3085,-88.1395,84.9,1111122 
DISL,ioos:station:DISL:CATA:1,2018-05-01T04:47:00Z,30.3085,-88.1395,85.0,1111122 
DISL,ioos:station:DISL:CATA:1,2018-05-01T05:47:00Z,30.3085,-88.1395,83.7,1111122 
DISL,ioos:station:DISL:CATA:1,2018-05-01T06:47:00Z,30.3085,-88.1395,84.9,1111122 
DISL,ioos:station:DISL:CATA:1,2018-05-01T07:47:00Z,30.3085,-88.1395,83.9,1111122 
DISL,ioos:station:DISL:CATA:1,2018-05-01T08:47:00Z,30.3085,-88.1395,83.3,1111122 
DISL,ioos:station:DISL:CATA:1,2018-05-01T09:47:00Z,30.3085,-88.1395,86.2,1111122 
DISL,ioos:station:DISL:CATA:1,2018-05-01T10:47:00Z,30.3085,-88.1395,88.7,1111122 
DISL,ioos:station:DISL:CATA:1,2018-05-01T11:47:00Z,30.3085,-88.1395,88.5,1111122 
DISL,ioos:station:DISL:CATA:1,2018-05-01T12:47:00Z,30.3085,-88.1395,88.8,1111122 
DISL,ioos:station:DISL:CATA:1,2018-05-01T13:47:00Z,30.3085,-88.1395,82.2,1111122 
DISL,ioos:station:DISL:CATA:1,2018-05-01T14:47:00Z,30.3085,-88.1395,80.1,1111122 
DISL,ioos:station:DISL:CATA:1,2018-05-01T15:47:00Z,30.3085,-88.1395,81.0,1111122 
DISL,ioos:station:DISL:CATA:1,2018-05-01T16:47:00Z,30.3085,-88.1395,81.5,1111122 
DISL,ioos:station:DISL:CATA:1,2018-05-01T17:47:00Z,30.3085,-88.1395,80.7,1111122 
DISL,ioos:station:DISL:CATA:1,2018-05-01T18:47:00Z,30.3085,-88.1395,79.32,1111122 
DISL,ioos:station:DISL:CATA:1,2018-05-01T19:47:00Z,30.3085,-88.1395,77.37,1111122 
DISL,ioos:station:DISL:CATA:1,2018-05-01T20:47:00Z,30.3085,-88.1395,72.67,1111122 
DISL,ioos:station:DISL:CATA:1,2018-05-01T21:47:00Z,30.3085,-88.1395,72.27,1111122 
DISL,ioos:station:DISL:CATA:1,2018-05-01T22:47:00Z,30.3085,-88.1395,73.54,1111122 
DISL,ioos:station:DISL:CATA:1,2018-05-01T23:47:00Z,30.3085,-88.1395,75.5,1111122 
DISL,ioos:station:DISL:CATA:1,2018-05-02T00:47:00Z,30.3085,-88.1395,76.32,1111122 
DISL,ioos:station:DISL:CATA:1,2018-05-02T01:47:00Z,30.3085,-88.1395,77.14,1111122 
DISL,ioos:station:DISL:CATA:1,2018-05-02T02:47:00Z,30.3085,-88.1395,78.51,1111122 
DISL,ioos:station:DISL:CATA:1,2018-05-02T03:47:00Z,30.3085,-88.1395,72.55,1111122 
DISL,ioos:station:DISL:CATA:1,2018-05-02T04:47:00Z,30.3085,-88.1395,75.7,1111122 
DISL,ioos:station:DISL:CATA:1,2018-05-02T05:47:00Z,30.3085,-88.1395,74.95,1111122 
DISL,ioos:station:DISL:CATA:1,2018-05-02T06:47:00Z,30.3085,-88.1395,79.85,1111122 
DISL,ioos:station:DISL:CATA:1,2018-05-02T07:47:00Z,30.3085,-88.1395,81.0,1111122 
DISL,ioos:station:DISL:CATA:1,2018-05-02T08:47:00Z,30.3085,-88.1395,82.5,1111122 
DISL,ioos:station:DISL:CATA:1,2018-05-02T09:47:00Z,30.3085,-88.1395,83.6,1111122 
DISL,ioos:station:DISL:CATA:1,2018-05-02T10:47:00Z,30.3085,-88.1395,82.4,1111122 
DISL,ioos:station:DISL:CATA:1,2018-05-02T11:47:00Z,30.3085,-88.1395,86.4,1111122 
DISL,ioos:station:DISL:CATA:1,2018-05-02T12:47:00Z,30.3085,-88.1395,80.4,1111122 
DISL,ioos:station:DISL:CATA:1,2018-05-02T13:47:00Z,30.3085,-88.1395,72.34,1111122 
DISL,ioos:station:DISL:CATA:1,2018-05-02T14:47:00Z,30.3085,-88.1395,69.5,1111122 
DISL,ioos:station:DISL:CATA:1,2018-05-02T15:47:00Z,30.3085,-88.1395,72.92,1111122 
DISL,ioos:station:DISL:CATA:1,2018-05-02T16:47:00Z,30.3085,-88.1395,74.18,1111122 
DISL,ioos:station:DISL:CATA:1,2018-05-02T17:47:00Z,30.3085,-88.1395,77.64,1111122 
DISL,ioos:station:DISL:CATA:1,2018-05-02T18:47:00Z,30.3085,-88.1395,79.82,1111122 
DISL,ioos:station:DISL:CATA:1,2018-05-02T19:47:00Z,30.3085,-88.1395,80.5,1111122 
DISL,ioos:station:DISL:CATA:1,2018-05-02T20:47:00Z,30.3085,-88.1395,79.32,1111122 
DISL,ioos:station:DISL:CATA:1,2018-05-02T21:47:00Z,30.3085,-88.1395,76.96,1111122 
DISL,ioos:station:DISL:CATA:1,2018-05-02T22:47:00Z,30.3085,-88.1395,73.02,1111122 
DISL,ioos:station:DISL:CATA:1,2018-05-02T23:47:00Z,30.3085,-88.1395,76.9,1111122 
DISL,ioos:station:DISL:CATA:1,2018-05-03T00:47:00Z,30.3085,-88.1395,78.48,1111122 
DISL,ioos:station:DISL:CATA:1,2018-05-03T01:47:00Z,30.3085,-88.1395,83.1,1111122 
DISL,ioos:station:DISL:CATA:1,2018-05-03T02:47:00Z,30.3085,-88.1395,80.3,1111122 
DISL,ioos:station:DISL:CATA:1,2018-05-03T03:47:00Z,30.3085,-88.1395,79.2,1111122 
DISL,ioos:station:DISL:CATA:1,2018-05-03T04:47:00Z,30.3085,-88.1395,73.85,1111122 
DISL,ioos:station:DISL:CATA:1,2018-05-03T06:17:00Z,30.3085,-88.1395,74.02,1111122 
DISL,ioos:station:DISL:CATA:1,2018-05-03T06:47:00Z,30.3085,-88.1395,71.73,1111122 
DISL,ioos:station:DISL:CATA:1,2018-05-03T07:47:00Z,30.3085,-88.1395,70.63,1111122 
DISL,ioos:station:DISL:CATA:1,2018-05-03T08:47:00Z,30.3085,-88.1395,69.02,1111122 
DISL,ioos:station:DISL:CATA:1,2018-05-03T09:47:00Z,30.3085,-88.1395,73.85,1111122 
DISL,ioos:station:DISL:CATA:1,2018-05-03T10:47:00Z,30.3085,-88.1395,76.66,1111122 
DISL,ioos:station:DISL:CATA:1,2018-05-03T11:47:00Z,30.3085,-88.1395,77.35,1111122 
DISL,ioos:station:DISL:CATA:1,2018-05-03T12:47:00Z,30.3085,-88.1395,75.29,1111122 
DISL,ioos:station:DISL:CATA:1,2018-05-03T13:47:00Z,30.3085,-88.1395,78.89,1111122 
DISL,ioos:station:DISL:CATA:1,2018-05-03T14:47:00Z,30.3085,-88.1395,79.84,1111122 
DISL,ioos:station:DISL:CATA:1,2018-05-03T15:47:00Z,30.3085,-88.1395,80.4,1111122 
DISL,ioos:station:DISL:CATA:1,2018-05-03T16:47:00Z,30.3085,-88.1395,80.1,1111122 
DISL,ioos:station:DISL:CATA:1,2018-05-03T17:47:00Z,30.3085,-88.1395,76.27,1111122 
DISL,ioos:station:DISL:CATA:1,2018-05-03T18:47:00Z,30.3085,-88.1395,76.99,1111122 
DISL,ioos:station:DISL:CATA:1,2018-05-03T19:47:00Z,30.3085,-88.1395,72.23,1111122 
DISL,ioos:station:DISL:CATA:1,2018-05-03T20:47:00Z,30.3085,-88.1395,73.32,1111122 
DISL,ioos:station:DISL:CATA:1,2018-05-03T21:47:00Z,30.3085,-88.1395,72.91,1111122 
DISL,ioos:station:DISL:CATA:1,2018-05-03T22:47:00Z,30.3085,-88.1395,68.74,1111122 
DISL,ioos:station:DISL:CATA:1,2018-05-03T23:47:00Z,30.3085,-88.1395,70.56,1111122 
DISL,ioos:station:DISL:CATA:1,2018-05-04T00:47:00Z,30.3085,-88.1395,74.37,1111122 
DISL,ioos:station:DISL:CATA:1,2018-05-04T01:47:00Z,30.3085,-88.1395,75.46,1111122 
DISL,ioos:station:DISL:CATA:1,2018-05-04T02:47:00Z,30.3085,-88.1395,77.04,1111122 
DISL,ioos:station:DISL:CATA:1,2018-05-04T03:47:00Z,30.3085,-88.1395,79.06,1111122 
DISL,ioos:station:DISL:CATA:1,2018-05-04T04:47:00Z,30.3085,-88.1395,78.55,1111122 
DISL,ioos:station:DISL:CATA:1,2018-05-04T05:47:00Z,30.3085,-88.1395,70.46,1111122 
DISL,ioos:station:DISL:CATA:1,2018-05-04T06:47:00Z,30.3085,-88.1395,70.87,1111122 
DISL,ioos:station:DISL:CATA:1,2018-05-04T07:47:00Z,30.3085,-88.1395,69.09,1111122 
DISL,ioos:station:DISL:CATA:1,2018-05-04T08:47:00Z,30.3085,-88.1395,73.0,1111122 
DISL,ioos:station:DISL:CATA:1,2018-05-04T09:47:00Z,30.3085,-88.1395,75.15,1111122 
DISL,ioos:station:DISL:CATA:1,2018-05-04T10:47:00Z,30.3085,-88.1395,73.03,1111122 
DISL,ioos:station:DISL:CATA:1,2018-05-04T11:47:00Z,30.3085,-88.1395,74.57,1111122 
DISL,ioos:station:DISL:CATA:1,2018-05-04T12:47:00Z,30.3085,-88.1395,72.24,1111122 
DISL,ioos:station:DISL:CATA:1,2018-05-04T13:47:00Z,30.3085,-88.1395,72.28,1111122 
DISL,ioos:station:DISL:CATA:1,2018-05-04T14:47:00Z,30.3085,-88.1395,73.85,1111122 
DISL,ioos:station:DISL:CATA:1,2018-05-04T15:47:00Z,30.3085,-88.1395,70.28,1111122 
DISL,ioos:station:DISL:CATA:1,2018-05-04T16:47:00Z,30.3085,-88.1395,70.85,1111122 
DISL,ioos:station:DISL:CATA:1,2018-05-04T17:47:00Z,30.3085,-88.1395,70.06,1111122 
DISL,ioos:station:DISL:CATA:1,2018-05-04T18:47:00Z,30.3085,-88.1395,68.52,1111122 
DISL,ioos:station:DISL:CATA:1,2018-05-04T19:47:00Z,30.3085,-88.1395,68.11,1111122 
DISL,ioos:station:DISL:CATA:1,2018-05-04T20:47:00Z,30.3085,-88.1395,67.63,1111122 
DISL,ioos:station:DISL:CATA:1,2018-05-04T21:47:00Z,30.3085,-88.1395,69.0,1111122 
DISL,ioos:station:DISL:CATA:1,2018-05-04T22:47:00Z,30.3085,-88.1395,69.76,1111122 
DISL,ioos:station:DISL:CATA:1,2018-05-04T23:47:00Z,30.3085,-88.1395,73.05,1111122 
DISL,ioos:station:DISL:CATA:1,2018-05-05T00:47:00Z,30.3085,-88.1395,73.27,1111122 
DISL,ioos:station:DISL:CATA:1,2018-05-05T01:47:00Z,30.3085,-88.1395,73.61,1111122 
DISL,ioos:station:DISL:CATA:1,2018-05-05T02:47:00Z,30.3085,-88.1395,73.17,1111122 
DISL,ioos:station:DISL:CATA:1,2018-05-05T03:47:00Z,30.3085,-88.1395,72.38,1111122 
DISL,ioos:station:DISL:CATA:1,2018-05-05T04:47:00Z,30.3085,-88.1395,71.21,1111122 
DISL,ioos:station:DISL:CATA:1,2018-05-05T05:47:00Z,30.3085,-88.1395,74.33,1111122 
DISL,ioos:station:DISL:CATA:1,2018-05-05T06:47:00Z,30.3085,-88.1395,76.7,1111122 
DISL,ioos:station:DISL:CATA:1,2018-05-05T07:47:00Z,30.3085,-88.1395,77.14,1111122 
DISL,ioos:station:DISL:CATA:1,2018-05-05T08:47:00Z,30.3085,-88.1395,77.0,1111122 
DISL,ioos:station:DISL:CATA:1,2018-05-05T09:47:00Z,30.3085,-88.1395,75.5,1111122 
DISL,ioos:station:DISL:CATA:1,2018-05-05T10:47:00Z,30.3085,-88.1395,76.35,1111122 
DISL,ioos:station:DISL:CATA:1,2018-05-05T11:47:00Z,30.3085,-88.1395,82.7,1111122 
DISL,ioos:station:DISL:CATA:1,2018-05-05T12:47:00Z,30.3085,-88.1395,76.49,1111122 
DISL,ioos:station:DISL:CATA:1,2018-05-05T13:47:00Z,30.3085,-88.1395,78.88,1111122 
DISL,ioos:station:DISL:CATA:1,2018-05-05T14:47:00Z,30.3085,-88.1395,78.35,1111122 
DISL,ioos:station:DISL:CATA:1,2018-05-05T15:47:00Z,30.3085,-88.1395,74.41,1111122 
DISL,ioos:station:DISL:CATA:1,2018-05-05T16:47:00Z,30.3085,-88.1395,76.36,1111122 
DISL,ioos:station:DISL:CATA:1,2018-05-05T17:47:00Z,30.3085,-88.1395,74.79,1111122 
DISL,ioos:station:DISL:CATA:1,2018-05-05T18:48:00Z,30.3085,-88.1395,68.04,1111122 
DISL,ioos:station:DISL:CATA:1,2018-05-05T19:48:00Z,30.3085,-88.1395,72.25,1111122 
DISL,ioos:station:DISL:CATA:1,2018-05-05T20:48:00Z,30.3085,-88.1395,70.09,1111122 
DISL,ioos:station:DISL:CATA:1,2018-05-05T21:48:00Z,30.3085,-88.1395,75.18,1111122 
DISL,ioos:station:DISL:CATA:1,2018-05-05T22:48:00Z,30.3085,-88.1395,83.9,1111122 
DISL,ioos:station:DISL:CATA:1,2018-05-05T23:48:00Z,30.3085,-88.1395,73.61,1111122 
DISL,ioos:station:DISL:CATA:1,2018-05-06T00:48:00Z,30.3085,-88.1395,86.6,1111122 
DISL,ioos:station:DISL:CATA:1,2018-05-06T01:48:00Z,30.3085,-88.1395,85.9,1111122 
DISL,ioos:station:DISL:CATA:1,2018-05-06T02:48:00Z,30.3085,-88.1395,84.6,1111122 
DISL,ioos:station:DISL:CATA:1,2018-05-06T03:48:00Z,30.3085,-88.1395,84.9,1111122 
DISL,ioos:station:DISL:CATA:1,2018-05-06T04:48:00Z,30.3085,-88.1395,86.5,1111122 
DISL,ioos:station:DISL:CATA:1,2018-05-06T05:48:00Z,30.3085,-88.1395,87.8,1111122 
DISL,ioos:station:DISL:CATA:1,2018-05-06T06:48:00Z,30.3085,-88.1395,85.4,1111122 
DISL,ioos:station:DISL:CATA:1,2018-05-06T07:48:00Z,30.3085,-88.1395,87.4,1111122 
DISL,ioos:station:DISL:CATA:1,2018-05-06T08:48:00Z,30.3085,-88.1395,89.5,1111122 
DISL,ioos:station:DISL:CATA:1,2018-05-06T09:48:00Z,30.3085,-88.1395,90.6,1111122 
DISL,ioos:station:DISL:CATA:1,2018-05-06T10:48:00Z,30.3085,-88.1395,91.1,1111122 
DISL,ioos:station:DISL:CATA:1,2018-05-06T11:18:00Z,30.3085,-88.1395,90.9,1111122 
DISL,ioos:station:DISL:CATA:1,2018-05-06T12:48:00Z,30.3085,-88.1395,82.7,1111122 
DISL,ioos:station:DISL:CATA:1,2018-05-06T14:48:00Z,30.3085,-88.1395,72.28,1111122 
DISL,ioos:station:DISL:CATA:1,2018-05-06T15:48:00Z,30.3085,-88.1395,81.6,1111122 
DISL,ioos:station:DISL:CATA:1,2018-05-06T16:48:00Z,30.3085,-88.1395,78.85,1111122 
DISL,ioos:station:DISL:CATA:1,2018-05-06T17:48:00Z,30.3085,-88.1395,70.58,1111122 
DISL,ioos:station:DISL:CATA:1,2018-05-06T18:48:00Z,30.3085,-88.1395,61.19,1111122 
DISL,ioos:station:DISL:CATA:1,2018-05-06T19:48:00Z,30.3085,-88.1395,47.28,1111122 
DISL,ioos:station:DISL:CATA:1,2018-05-06T20:48:00Z,30.3085,-88.1395,38.85,1111122 
DISL,ioos:station:DISL:CATA:1,2018-05-06T21:48:00Z,30.3085,-88.1395,45.67,1111122 
DISL,ioos:station:DISL:CATA:1,2018-05-06T22:48:00Z,30.3085,-88.1395,46.32,1111122 
DISL,ioos:station:DISL:CATA:1,2018-05-06T23:48:00Z,30.3085,-88.1395,42.24,1111122 
DISL,ioos:station:DISL:CATA:1,2018-05-07T00:48:00Z,30.3085,-88.1395,50.4,1111122 
DISL,ioos:station:DISL:CATA:1,2018-05-07T01:48:00Z,30.3085,-88.1395,58.46,1111122 
DISL,ioos:station:DISL:CATA:1,2018-05-07T02:48:00Z,30.3085,-88.1395,55.48,1111122 
DISL,ioos:station:DISL:CATA:1,2018-05-07T03:48:00Z,30.3085,-88.1395,55.96,1111122 
DISL,ioos:station:DISL:CATA:1,2018-05-07T04:48:00Z,30.3085,-88.1395,59.22,1111122 
DISL,ioos:station:DISL:CATA:1,2018-05-07T05:48:00Z,30.3085,-88.1395,60.18,1111122 
DISL,ioos:station:DISL:CATA:1,2018-05-07T06:48:00Z,30.3085,-88.1395,61.45,1111122 
DISL,ioos:station:DISL:CATA:1,2018-05-07T07:48:00Z,30.3085,-88.1395,62.8,1111122 
DISL,ioos:station:DISL:CATA:1,2018-05-07T08:48:00Z,30.3085,-88.1395,59.82,1111122 
DISL,ioos:station:DISL:CATA:1,2018-05-07T09:48:00Z,30.3085,-88.1395,65.82,1111122 
DISL,ioos:station:DISL:CATA:1,2018-05-07T10:48:00Z,30.3085,-88.1395,64.07,1111122 
DISL,ioos:station:DISL:CATA:1,2018-05-07T11:48:00Z,30.3085,-88.1395,60.64,1111122 
DISL,ioos:station:DISL:CATA:1,2018-05-07T12:48:00Z,30.3085,-88.1395,59.08,1111122 
DISL,ioos:station:DISL:CATA:1,2018-05-07T13:48:00Z,30.3085,-88.1395,56.82,1111122 
DISL,ioos:station:DISL:CATA:1,2018-05-07T14:48:00Z,30.3085,-88.1395,63.72,1111122 
DISL,ioos:station:DISL:CATA:1,2018-05-07T15:48:00Z,30.3085,-88.1395,65.84,1111122 
DISL,ioos:station:DISL:CATA:1,2018-05-07T16:48:00Z,30.3085,-88.1395,51.28,1111122 
DISL,ioos:station:DISL:CATA:1,2018-05-07T17:48:00Z,30.3085,-88.1395,47.23,1111122 
DISL,ioos:station:DISL:CATA:1,2018-05-07T18:48:00Z,30.3085,-88.1395,53.68,1111122 
DISL,ioos:station:DISL:CATA:1,2018-05-07T19:48:00Z,30.3085,-88.1395,51.87,1111122 
DISL,ioos:station:DISL:CATA:1,2018-05-07T20:48:00Z,30.3085,-88.1395,57.97,1111122 
DISL,ioos:station:DISL:CATA:1,2018-05-07T21:48:00Z,30.3085,-88.1395,56.32,1111122 
DISL,ioos:station:DISL:CATA:1,2018-05-07T22:48:00Z,30.3085,-88.1395,58.24,1111122 
DISL,ioos:station:DISL:CATA:1,2018-05-07T23:48:00Z,30.3085,-88.1395,60.84,1111122 
DISL,ioos:station:DISL:CATA:1,2018-05-08T00:48:00Z,30.3085,-88.1395,53.52,1111122 
DISL,ioos:station:DISL:CATA:1,2018-05-08T01:48:00Z,30.3085,-88.1395,62.78,1111122 
DISL,ioos:station:DISL:CATA:1,2018-05-08T02:48:00Z,30.3085,-88.1395,65.59,1111122 
DISL,ioos:station:DISL:CATA:1,2018-05-08T03:48:00Z,30.3085,-88.1395,66.04,1111122 
DISL,ioos:station:DISL:CATA:1,2018-05-08T04:48:00Z,30.3085,-88.1395,65.25,1111122 
DISL,ioos:station:DISL:CATA:1,2018-05-08T05:48:00Z,30.3085,-88.1395,72.55,1111122 
DISL,ioos:station:DISL:CATA:1,2018-05-08T06:48:00Z,30.3085,-88.1395,76.32,1111122 
DISL,ioos:station:DISL:CATA:1,2018-05-08T07:48:00Z,30.3085,-88.1395,83.3,1111122 
DISL,ioos:station:DISL:CATA:1,2018-05-08T08:48:00Z,30.3085,-88.1395,90.2,1111122 
DISL,ioos:station:DISL:CATA:1,2018-05-08T09:48:00Z,30.3085,-88.1395,91.0,1111122 
DISL,ioos:station:DISL:CATA:1,2018-05-08T10:48:00Z,30.3085,-88.1395,92.8,1111122 
DISL,ioos:station:DISL:CATA:1,2018-05-08T11:48:00Z,30.3085,-88.1395,86.8,1111122 
DISL,ioos:station:DISL:CATA:1,2018-05-08T12:48:00Z,30.3085,-88.1395,78.38,1111122 
DISL,ioos:station:DISL:CATA:1,2018-05-08T13:48:00Z,30.3085,-88.1395,69.81,1111122 
DISL,ioos:station:DISL:CATA:1,2018-05-08T14:48:00Z,30.3085,-88.1395,73.21,1111122 
DISL,ioos:station:DISL:CATA:1,2018-05-08T15:48:00Z,30.3085,-88.1395,66.32,1111122 
DISL,ioos:station:DISL:CATA:1,2018-05-08T16:48:00Z,30.3085,-88.1395,58.34,1111122 
DISL,ioos:station:DISL:CATA:1,2018-05-08T17:48:00Z,30.3085,-88.1395,48.32,1111122 
DISL,ioos:station:DISL:CATA:1,2018-05-08T18:48:00Z,30.3085,-88.1395,40.48,1111122 
DISL,ioos:station:DISL:CATA:1,2018-05-08T19:48:00Z,30.3085,-88.1395,50.38,1111122 
DISL,ioos:station:DISL:CATA:1,2018-05-08T20:48:00Z,30.3085,-88.1395,50.97,1111122 
DISL,ioos:station:DISL:CATA:1,2018-05-08T21:48:00Z,30.3085,-88.1395,55.22,1111122 
DISL,ioos:station:DISL:CATA:1,2018-05-08T22:48:00Z,30.3085,-88.1395,56.7,1111122 
DISL,ioos:station:DISL:CATA:1,2018-05-08T23:48:00Z,30.3085,-88.1395,54.92,1111122 
DISL,ioos:station:DISL:CATA:1,2018-05-09T00:48:00Z,30.3085,-88.1395,60.23,1111122 
DISL,ioos:station:DISL:CATA:1,2018-05-09T01:48:00Z,30.3085,-88.1395,57.43,1111122 
DISL,ioos:station:DISL:CATA:1,2018-05-09T02:48:00Z,30.3085,-88.1395,67.02,1111122 
DISL,ioos:station:DISL:CATA:1,2018-05-09T03:48:00Z,30.3085,-88.1395,69.36,1111122 
DISL,ioos:station:DISL:CATA:1,2018-05-09T04:48:00Z,30.3085,-88.1395,71.48,1111122 
DISL,ioos:station:DISL:CATA:1,2018-05-09T05:48:00Z,30.3085,-88.1395,72.1,1111122 
DISL,ioos:station:DISL:CATA:1,2018-05-09T06:48:00Z,30.3085,-88.1395,74.71,1111122 
DISL,ioos:station:DISL:CATA:1,2018-05-09T07:48:00Z,30.3085,-88.1395,71.08,1111122 
DISL,ioos:station:DISL:CATA:1,2018-05-09T08:48:00Z,30.3085,-88.1395,83.9,1111122 
DISL,ioos:station:DISL:CATA:1,2018-05-09T09:48:00Z,30.3085,-88.1395,89.5,1111122 
DISL,ioos:station:DISL:CATA:1,2018-05-09T10:48:00Z,30.3085,-88.1395,90.3,1111122 
DISL,ioos:station:DISL:CATA:1,2018-05-09T11:47:00Z,30.3085,-88.1395,90.1,1111122 
DISL,ioos:station:DISL:CATA:1,2018-05-09T12:47:00Z,30.3085,-88.1395,87.7,1111122 
DISL,ioos:station:DISL:CATA:1,2018-05-09T13:47:00Z,30.3085,-88.1395,82.5,1111122 
DISL,ioos:station:DISL:CATA:1,2018-05-09T14:47:00Z,30.3085,-88.1395,85.3,1111122 
DISL,ioos:station:DISL:CATA:1,2018-05-09T15:47:00Z,30.3085,-88.1395,82.3,1111122 
DISL,ioos:station:DISL:CATA:1,2018-05-09T16:47:00Z,30.3085,-88.1395,75.59,1111122 
DISL,ioos:station:DISL:CATA:1,2018-05-09T17:47:00Z,30.3085,-88.1395,76.55,1111122 
DISL,ioos:station:DISL:CATA:1,2018-05-09T18:47:00Z,30.3085,-88.1395,63.92,1111122 
DISL,ioos:station:DISL:CATA:1,2018-05-09T19:47:00Z,30.3085,-88.1395,66.32,1111122 
DISL,ioos:station:DISL:CATA:1,2018-05-09T20:47:00Z,30.3085,-88.1395,71.12,1111122 
DISL,ioos:station:DISL:CATA:1,2018-05-09T21:47:00Z,30.3085,-88.1395,65.4,1111122 
DISL,ioos:station:DISL:CATA:1,2018-05-09T22:47:00Z,30.3085,-88.1395,62.01,1111122 
DISL,ioos:station:DISL:CATA:1,2018-05-09T23:47:00Z,30.3085,-88.1395,52.62,1111122 
DISL,ioos:station:DISL:CATA:1,2018-05-10T00:47:00Z,30.3085,-88.1395,56.54,1111122 
DISL,ioos:station:DISL:CATA:1,2018-05-10T01:47:00Z,30.3085,-88.1395,63.36,1111122 
DISL,ioos:station:DISL:CATA:1,2018-05-10T02:47:00Z,30.3085,-88.1395,65.38,1111122 
DISL,ioos:station:DISL:CATA:1,2018-05-10T03:47:00Z,30.3085,-88.1395,65.66,1111122 
DISL,ioos:station:DISL:CATA:1,2018-05-10T04:47:00Z,30.3085,-88.1395,60.0,1111122 
DISL,ioos:station:DISL:CATA:1,2018-05-10T05:47:00Z,30.3085,-88.1395,59.97,1111122 
DISL,ioos:station:DISL:CATA:1,2018-05-10T06:47:00Z,30.3085,-88.1395,54.01,1111122 
DISL,ioos:station:DISL:CATA:1,2018-05-10T07:47:00Z,30.3085,-88.1395,56.1,1111122 
DISL,ioos:station:DISL:CATA:1,2018-05-10T08:47:00Z,30.3085,-88.1395,51.03,1111122 
DISL,ioos:station:DISL:CATA:1,2018-05-10T09:47:00Z,30.3085,-88.1395,58.4,1111122 
DISL,ioos:station:DISL:CATA:1,2018-05-10T10:47:00Z,30.3085,-88.1395,77.35,1111122 
DISL,ioos:station:DISL:CATA:1,2018-05-10T11:47:00Z,30.3085,-88.1395,71.73,1111122 
DISL,ioos:station:DISL:CATA:1,2018-05-10T12:47:00Z,30.3085,-88.1395,70.32,1111122 
DISL,ioos:station:DISL:CATA:1,2018-05-10T13:47:00Z,30.3085,-88.1395,69.96,1111122 
DISL,ioos:station:DISL:CATA:1,2018-05-10T14:47:00Z,30.3085,-88.1395,64.3,1111122 
DISL,ioos:station:DISL:CATA:1,2018-05-10T15:47:00Z,30.3085,-88.1395,68.32,1111122 
DISL,ioos:station:DISL:CATA:1,2018-05-10T16:47:00Z,30.3085,-88.1395,64.8,1111122 
DISL,ioos:station:DISL:CATA:1,2018-05-10T17:47:00Z,30.3085,-88.1395,61.1,1111122 
DISL,ioos:station:DISL:CATA:1,2018-05-10T18:47:00Z,30.3085,-88.1395,53.49,1111122 
DISL,ioos:station:DISL:CATA:1,2018-05-10T19:47:00Z,30.3085,-88.1395,48.74,1111122 
DISL,ioos:station:DISL:CATA:1,2018-05-10T20:47:00Z,30.3085,-88.1395,46.14,1111122 
DISL,ioos:station:DISL:CATA:1,2018-05-10T21:47:00Z,30.3085,-88.1395,52.14,1111122 
DISL,ioos:station:DISL:CATA:1,2018-05-10T22:47:00Z,30.3085,-88.1395,54.2,1111122 
DISL,ioos:station:DISL:CATA:1,2018-05-10T23:47:00Z,30.3085,-88.1395,57.28,1111122 
DISL,ioos:station:DISL:CATA:1,2018-05-11T00:47:00Z,30.3085,-88.1395,60.03,1111122 
DISL,ioos:station:DISL:CATA:1,2018-05-11T01:47:00Z,30.3085,-88.1395,58.11,1111122 
DISL,ioos:station:DISL:CATA:1,2018-05-11T02:47:00Z,30.3085,-88.1395,55.24,1111122 
DISL,ioos:station:DISL:CATA:1,2018-05-11T03:47:00Z,30.3085,-88.1395,56.61,1111122 
DISL,ioos:station:DISL:CATA:1,2018-05-11T04:47:00Z,30.3085,-88.1395,65.42,1111122 
DISL,ioos:station:DISL:CATA:1,2018-05-11T05:47:00Z,30.3085,-88.1395,67.1,1111122 
DISL,ioos:station:DISL:CATA:1,2018-05-11T06:47:00Z,30.3085,-88.1395,66.21,1111122 
DISL,ioos:station:DISL:CATA:1,2018-05-11T07:47:00Z,30.3085,-88.1395,67.1,1111122 
DISL,ioos:station:DISL:CATA:1,2018-05-11T08:47:00Z,30.3085,-88.1395,73.3,1111122 
DISL,ioos:station:DISL:CATA:1,2018-05-11T09:47:00Z,30.3085,-88.1395,71.42,1111122 
DISL,ioos:station:DISL:CATA:1,2018-05-11T10:47:00Z,30.3085,-88.1395,71.11,1111122 
DISL,ioos:station:DISL:CATA:1,2018-05-11T11:47:00Z,30.3085,-88.1395,58.09,1111122 
DISL,ioos:station:DISL:CATA:1,2018-05-11T12:47:00Z,30.3085,-88.1395,67.6,1111122 
DISL,ioos:station:DISL:CATA:1,2018-05-11T13:47:00Z,30.3085,-88.1395,69.03,1111122 
DISL,ioos:station:DISL:CATA:1,2018-05-11T14:47:00Z,30.3085,-88.1395,66.91,1111122 
DISL,ioos:station:DISL:CATA:1,2018-05-11T15:47:00Z,30.3085,-88.1395,68.5,1111122 
DISL,ioos:station:DISL:CATA:1,2018-05-11T16:47:00Z,30.3085,-88.1395,57.23,1111122 
DISL,ioos:station:DISL:CATA:1,2018-05-11T17:47:00Z,30.3085,-88.1395,52.43,1111122 
DISL,ioos:station:DISL:CATA:1,2018-05-11T18:47:00Z,30.3085,-88.1395,56.16,1111122 
DISL,ioos:station:DISL:CATA:1,2018-05-11T19:47:00Z,30.3085,-88.1395,41.27,1111122 
DISL,ioos:station:DISL:CATA:1,2018-05-11T20:47:00Z,30.3085,-88.1395,40.99,1111122 
DISL,ioos:station:DISL:CATA:1,2018-05-11T21:47:00Z,30.3085,-88.1395,47.67,1111122 
DISL,ioos:station:DISL:CATA:1,2018-05-11T22:47:00Z,30.3085,-88.1395,49.16,1111122 
DISL,ioos:station:DISL:CATA:1,2018-05-11T23:47:00Z,30.3085,-88.1395,51.94,1111122 
DISL,ioos:station:DISL:CATA:1,2018-05-12T00:47:00Z,30.3085,-88.1395,54.34,1111122 
DISL,ioos:station:DISL:CATA:1,2018-05-12T01:47:00Z,30.3085,-88.1395,57.12,1111122 
DISL,ioos:station:DISL:CATA:1,2018-05-12T02:47:00Z,30.3085,-88.1395,57.98,1111122 
DISL,ioos:station:DISL:CATA:1,2018-05-12T03:47:00Z,30.3085,-88.1395,61.71,1111122 
DISL,ioos:station:DISL:CATA:1,2018-05-12T04:47:00Z,30.3085,-88.1395,67.57,1111122 
DISL,ioos:station:DISL:CATA:1,2018-05-12T05:47:00Z,30.3085,-88.1395,64.05,1111122 
DISL,ioos:station:DISL:CATA:1,2018-05-12T06:47:00Z,30.3085,-88.1395,70.32,1111122 
DISL,ioos:station:DISL:CATA:1,2018-05-12T07:47:00Z,30.3085,-88.1395,72.38,1111122 
DISL,ioos:station:DISL:CATA:1,2018-05-12T08:47:00Z,30.3085,-88.1395,64.15,1111122 
DISL,ioos:station:DISL:CATA:1,2018-05-12T09:47:00Z,30.3085,-88.1395,68.54,1111122 
DISL,ioos:station:DISL:CATA:1,2018-05-12T10:47:00Z,30.3085,-88.1395,70.05,1111122 
DISL,ioos:station:DISL:CATA:1,2018-05-12T11:47:00Z,30.3085,-88.1395,78.38,1111122 
DISL,ioos:station:DISL:CATA:1,2018-05-12T12:47:00Z,30.3085,-88.1395,77.75,1111122 
DISL,ioos:station:DISL:CATA:1,2018-05-12T13:47:00Z,30.3085,-88.1395,76.12,1111122 
DISL,ioos:station:DISL:CATA:1,2018-05-12T14:47:00Z,30.3085,-88.1395,75.16,1111122 
DISL,ioos:station:DISL:CATA:1,2018-05-12T15:47:00Z,30.3085,-88.1395,68.72,1111122 
DISL,ioos:station:DISL:CATA:1,2018-05-12T16:47:00Z,30.3085,-88.1395,68.77,1111122 
DISL,ioos:station:DISL:CATA:1,2018-05-12T17:47:00Z,30.3085,-88.1395,60.36,1111122 
DISL,ioos:station:DISL:CATA:1,2018-05-12T18:47:00Z,30.3085,-88.1395,60.71,1111122 
DISL,ioos:station:DISL:CATA:1,2018-05-12T19:47:00Z,30.3085,-88.1395,58.1,1111122 
DISL,ioos:station:DISL:CATA:1,2018-05-12T20:47:00Z,30.3085,-88.1395,59.02,1111122 
DISL,ioos:station:DISL:CATA:1,2018-05-12T21:47:00Z,30.3085,-88.1395,53.75,1111122 
DISL,ioos:station:DISL:CATA:1,2018-05-12T22:47:00Z,30.3085,-88.1395,54.4,1111122 
DISL,ioos:station:DISL:CATA:1,2018-05-12T23:47:00Z,30.3085,-88.1395,52.42,1111122 
DISL,ioos:station:DISL:CATA:1,2018-05-13T00:47:00Z,30.3085,-88.1395,61.15,1111122 
DISL,ioos:station:DISL:CATA:1,2018-05-13T01:47:00Z,30.3085,-88.1395,61.74,1111122 